TimeEST,TemperatureF,Dew PointF,Humidity,Sea Level PressureIn,VisibilityMPH,Wind Direction,Wind SpeedMPH,Gust SpeedMPH,PrecipitationIn,Events,Conditions,WindDirDegrees,DateUTC
12:15 AM,53.6,-9999,N/A,29.93,3.0,Calm,Calm,-,N/A,,Drizzle,0,2013-01-02 05:15:00
12:35 AM,53.6,-9999,N/A,29.93,2.5,NNW,5.8,-,N/A,,Heavy Drizzle,340,2013-01-02 05:35:00
12:55 AM,51.8,-9999,N/A,29.94,2.0,NNW,6.9,-,N/A,,Heavy Drizzle,330,2013-01-02 05:55:00
1:15 AM,51.8,-9999,N/A,29.94,3.0,NNW,6.9,-,N/A,,Heavy Drizzle,340,2013-01-02 06:15:00
1:35 AM,51.8,-9999,N/A,29.93,4.0,North,5.8,-,N/A,Rain,Rain,360,2013-01-02 06:35:00
1:55 AM,51.8,-9999,N/A,29.94,5.0,North,4.6,-,N/A,Rain,Rain,350,2013-01-02 06:55:00
2:15 AM,51.8,-9999,N/A,29.94,5.0,Calm,Calm,-,N/A,,Drizzle,0,2013-01-02 07:15:00
2:35 AM,51.8,-9999,N/A,29.91,3.0,Calm,Calm,-,N/A,,Drizzle,0,2013-01-02 07:35:00
2:55 AM,51.8,-9999,N/A,29.91,5.0,SSE,3.5,-,N/A,,Drizzle,150,2013-01-02 07:55:00
3:15 AM,51.8,-9999,N/A,29.93,4.0,NNW,3.5,-,N/A,Rain,Light Rain,330,2013-01-02 08:15:00
3:35 AM,51.8,-9999,N/A,29.94,3.0,NNW,4.6,-,N/A,Rain,Rain,330,2013-01-02 08:35:00
3:55 AM,51.8,-9999,N/A,29.93,3.0,Calm,Calm,-,N/A,,Heavy Drizzle,0,2013-01-02 08:55:00
4:15 AM,51.8,-9999,N/A,29.93,4.0,NNW,3.5,-,N/A,,Haze,330,2013-01-02 09:15:00
4:35 AM,51.8,-9999,N/A,29.94,4.0,Calm,Calm,-,N/A,,Haze,0,2013-01-02 09:35:00
4:55 AM,51.8,-9999,N/A,29.95,4.0,NW,3.5,-,N/A,,Haze,310,2013-01-02 09:55:00
5:15 AM,51.8,-9999,N/A,29.96,3.0,NW,3.5,-,N/A,,Overcast,310,2013-01-02 10:15:00
5:35 AM,51.8,-9999,N/A,29.96,3.0,WNW,3.5,-,N/A,,Overcast,290,2013-01-02 10:35:00
5:55 AM,51.8,-9999,N/A,29.96,4.0,Calm,Calm,-,N/A,,Haze,0,2013-01-02 10:55:00
6:15 AM,51.8,-9999,N/A,29.97,4.0,WNW,5.8,-,N/A,,Haze,300,2013-01-02 11:15:00
6:35 AM,51.8,-9999,N/A,29.98,5.0,NW,4.6,-,N/A,,Haze,310,2013-01-02 11:35:00
6:55 AM,51.8,-9999,N/A,29.99,7.0,WNW,6.9,-,N/A,,Mostly Cloudy,290,2013-01-02 11:55:00
7:15 AM,51.8,-9999,N/A,30.00,7.0,WNW,4.6,-,N/A,,Mostly Cloudy,300,2013-01-02 12:15:00
7:35 AM,51.8,-9999,N/A,29.99,10.0,NW,5.8,-,N/A,,Scattered Clouds,310,2013-01-02 12:35:00
7:55 AM,51.8,-9999,N/A,30.01,10.0,NW,4.6,-,N/A,,Scattered Clouds,310,2013-01-02 12:55:00
8:15 AM,51.8,51.8,100,30.01,10.0,WNW,3.5,-,N/A,,Scattered Clouds,300,2013-01-02 13:15:00
8:35 AM,50.0,50.0,100,30.00,7.0,Calm,Calm,-,N/A,,Clear,0,2013-01-02 13:35:00
8:55 AM,51.8,51.8,100,30.02,10.0,West,3.5,-,N/A,,Clear,280,2013-01-02 13:55:00
9:15 AM,53.6,53.6,100,30.03,10.0,WNW,4.6,-,N/A,,Clear,290,2013-01-02 14:15:00
9:35 AM,53.6,50.0,88,30.04,10.0,NW,5.8,-,N/A,,Clear,310,2013-01-02 14:35:00
9:55 AM,53.6,50.0,88,30.05,10.0,NW,5.8,-,N/A,,Clear,320,2013-01-02 14:55:00
10:15 AM,55.4,50.0,82,30.05,10.0,NW,3.5,-,N/A,,Clear,310,2013-01-02 15:15:00
10:35 AM,55.4,50.0,82,30.06,10.0,NNW,5.8,-,N/A,,Scattered Clouds,340,2013-01-02 15:35:00
10:55 AM,57.2,50.0,77,30.06,10.0,NNW,4.6,-,N/A,,Mostly Cloudy,330,2013-01-02 15:55:00
11:15 AM,59.0,50.0,72,30.06,10.0,NNW,3.5,-,N/A,,Mostly Cloudy,330,2013-01-02 16:15:00
11:35 AM,57.2,50.0,77,30.06,10.0,Calm,Calm,-,N/A,,Scattered Clouds,0,2013-01-02 16:35:00
11:55 AM,59.0,50.0,72,30.06,10.0,Calm,Calm,-,N/A,,Scattered Clouds,0,2013-01-02 16:55:00
12:15 PM,59.0,50.0,72,30.04,10.0,Calm,Calm,-,N/A,,Scattered Clouds,0,2013-01-02 17:15:00
12:35 PM,59.0,50.0,72,30.03,10.0,West,3.5,-,N/A,,Scattered Clouds,280,2013-01-02 17:35:00
12:55 PM,59.0,46.4,63,30.03,10.0,West,3.5,-,N/A,,Mostly Cloudy,270,2013-01-02 17:55:00
1:15 PM,59.0,46.4,63,30.02,10.0,Calm,Calm,-,N/A,,Mostly Cloudy,0,2013-01-02 18:15:00
1:35 PM,59.0,44.6,59,30.01,10.0,Calm,Calm,-,N/A,,Scattered Clouds,0,2013-01-02 18:35:00
1:55 PM,59.0,44.6,59,30.01,10.0,WNW,4.6,-,N/A,,Clear,290,2013-01-02 18:55:00
2:15 PM,60.8,44.6,55,30.02,10.0,North,4.6,-,N/A,,Scattered Clouds,350,2013-01-02 19:15:00
2:35 PM,59.0,42.8,55,30.02,10.0,NW,4.6,-,N/A,,Scattered Clouds,320,2013-01-02 19:35:00
2:55 PM,60.8,42.8,52,30.00,10.0,NNE,3.5,-,N/A,,Clear,20,2013-01-02 19:55:00
3:15 PM,60.8,42.8,52,30.01,10.0,NW,4.6,-,N/A,,Clear,320,2013-01-02 20:15:00
3:35 PM,59.0,41.0,51,30.01,10.0,WNW,3.5,-,N/A,,Clear,290,2013-01-02 20:35:00
3:55 PM,59.0,41.0,51,30.02,10.0,Calm,Calm,-,N/A,,Clear,0,2013-01-02 20:55:00
4:15 PM,59.0,42.8,55,30.03,10.0,NW,3.5,-,N/A,,Clear,310,2013-01-02 21:15:00
4:35 PM,59.0,44.6,59,30.03,10.0,Calm,Calm,-,N/A,,Clear,0,2013-01-02 21:35:00
4:55 PM,59.0,44.6,59,30.04,10.0,WNW,3.5,-,N/A,,Clear,300,2013-01-02 21:55:00
5:15 PM,59.0,46.4,63,30.04,10.0,WNW,3.5,-,N/A,,Clear,300,2013-01-02 22:15:00
5:35 PM,55.4,44.6,67,30.04,10.0,Calm,Calm,-,N/A,,Clear,0,2013-01-02 22:35:00
5:55 PM,53.6,44.6,72,30.05,10.0,NNW,4.6,-,N/A,,Clear,330,2013-01-02 22:55:00
6:15 PM,53.6,44.6,72,30.05,10.0,NW,4.6,-,N/A,,Clear,320,2013-01-02 23:15:00
6:35 PM,53.6,44.6,72,30.06,10.0,NW,3.5,-,N/A,,Clear,320,2013-01-02 23:35:00
6:55 PM,53.6,44.6,72,30.07,10.0,WNW,3.5,-,N/A,,Clear,300,2013-01-02 23:55:00
7:15 PM,53.6,44.6,72,30.08,10.0,WNW,3.5,-,N/A,,Clear,300,2013-01-03 00:15:00
7:35 PM,53.6,44.6,72,30.08,10.0,WNW,4.6,-,N/A,,Clear,300,2013-01-03 00:35:00
7:55 PM,51.8,42.8,71,30.09,10.0,NW,4.6,-,N/A,,Clear,310,2013-01-03 00:55:00
8:15 PM,51.8,42.8,71,30.10,10.0,WNW,4.6,-,N/A,,Clear,300,2013-01-03 01:15:00
8:35 PM,51.8,41.0,67,30.10,10.0,NW,5.8,-,N/A,,Clear,310,2013-01-03 01:35:00
8:55 PM,50.0,39.2,66,30.13,10.0,WNW,6.9,-,N/A,,Clear,290,2013-01-03 01:55:00
9:15 PM,48.2,37.4,66,30.14,10.0,WNW,5.8,-,N/A,,Clear,300,2013-01-03 02:15:00
9:35 PM,46.4,37.4,71,30.14,10.0,NW,3.5,-,N/A,,Clear,310,2013-01-03 02:35:00
9:55 PM,46.4,39.2,76,30.13,10.0,Calm,Calm,-,N/A,,Clear,0,2013-01-03 02:55:00
10:15 PM,46.4,39.2,76,30.13,10.0,WNW,4.6,-,N/A,,Clear,300,2013-01-03 03:15:00
10:35 PM,46.4,39.2,76,30.13,10.0,NW,3.5,-,N/A,,Clear,310,2013-01-03 03:35:00
10:55 PM,46.4,39.2,76,30.13,10.0,WNW,3.5,-,N/A,,Clear,300,2013-01-03 03:55:00
11:15 PM,46.4,41.0,81,30.12,10.0,Calm,Calm,-,N/A,,Clear,0,2013-01-03 04:15:00
11:35 PM,44.6,41.0,87,30.11,10.0,Calm,Calm,-,N/A,,Clear,0,2013-01-03 04:35:00
11:55 PM,44.6,41.0,87,30.10,10.0,Calm,Calm,-,N/A,,Clear,0,2013-01-03 04:55:00